Other Public Products
Issued by NWS Grand Forks, ND

Home | Current Version | Previous Version | Graphics & Text | Print | Product List | Glossary On
Versions: 1 2 3 4 5 6 7 8 9 10 11 12 13 14 15 16 17 18 19 20 21 22 23 24 25 26 27 28 29 30 31 32 33 34 35 36 37 38 39 40 41 42 43 44 45 46 47 48 49 50
000
FPUS83 KFGF 242231
OPUFGF
PRAIRIE TO PINES WEATHER ROUNDUP
NATIONAL WEATHER SERVICE EASTERN NORTH DAKOTA/GRAND FORKS ND
500 PM CDT FRI OCT 24 2014

 **SATELLITE DATA USED TO AUGMENT SKY COVER AT AUTOMATED STATIONS**
 *****  WEATHER ACROSS EASTERN NORTH DAKOTA  *****

CITY           SKY/WX    TMP DP  RH WIND       PRES   REMARKS
GRAND FORKS    MOSUNNY   70  33  25 W24G33    29.76R
GRAND FORKS AF SUNNY     69  32  25 W21G37    29.78R
GRAND CITY NWS   N/A     66 N/A N/A W20         N/A
BUXTON           N/A     72  37  28 W21G33      N/A
DEVILS LAKE    SUNNY     64  30  27 W21G29    29.80R
FARGO          MOSUNNY   75  41  29 W17       29.78R
WAHPETON ARPT  PTCLDY    75  36  23 W15       29.81S
$$

 *****  WEATHER ACROSS CENTRAL AND WESTERN NORTH DAKOTA  *****

CITY           SKY/WX    TMP DP  RH WIND       PRES   REMARKS
JAMESTOWN      MOSUNNY   67  35  30 NW20G31   29.86R
BISMARCK       PTSUNNY   66  36  32 NW16G23   29.94R
MINOT          SUNNY     63  27  25 W26G32    29.87R
MINOT AFB      SUNNY     63  31  30 W20G32    29.86R
GARRISON         N/A     63  30  28 W17G23    29.91R
WILLISTON      PTSUNNY   61  26  26 W17G26    29.95R
DICKINSON      PTSUNNY   58  31  35 W14       29.98R
HETTINGER      PTSUNNY   62  29  28 NW20      30.02R
$$

 *****  OTHER OBSERVATIONS NORTHEAST NORTH DAKOTA  *****

CITY           SKY/WX    TMP DP  RH WIND       PRES   REMARKS
WALHALLA         N/A     64  34  32 W20G41    29.73R
LANGDON        FAIR      64  32  29 W26G37    29.76R
CAVALIER       FAIR      66  32  28 NW23G40   29.73R
GRAFTON        FAIR      66  32  28 W24G32    29.74S
CANDO          FAIR      63  32  31 W28G36    29.81R
FORT TOTTEN    NOT AVBL
ROLLA          FAIR      59  32  36 NW21G30   29.81R
RUGBY          FAIR      63  32  31 W23       29.84R
 ***** THE ABOVE OBSERVATIONS ARE NON NWS ARE NOT QUALITY
        CONTROLLED AND MAY MIS-REPORT RAIN FOR SNOW...
$$

 *****  OTHER OBSERVATIONS SOUTHEAST NORTH DAKOTA *****

CITY           SKY/WX    TMP DP  RH WIND       PRES   REMARKS
COOPERSTOWN    NOT AVBL
VALLEY CITY    FAIR      66  39  37 W20G31    29.84R
OAKES            N/A     70  45  40 W8        29.86R
GWINNER        CLEAR     73  43  33 W10G16    29.86R
SHEYENNE NWR     N/A     76  40  26 NW13      29.95
BUFFALO          N/A     71  34  25 W22         N/A
WYNDMERE         N/A     77  39  25 W16         N/A
 ***** THE ABOVE OBSERVATIONS ARE NON NWS ARE NOT QUALITY
       CONTROLLED AND MAY MIS-REPORT RAIN FOR SNOW...
$$

  *****  WEATHER ACROSS NORTHERN MINNESOTA  *****

CITY           SKY/WX    TMP DP  RH WIND       PRES   REMARKS
FLAG ISLAND    MOCLDY    66  43  42 W15       29.60S
WARROAD        PTSUNNY   70  43  37 W17G29    29.65R
ROSEAU         MOSUNNY   70  37  30 W16G26    29.67R
HALLOCK        SUNNY     68  25  19 W24G31    29.71R
THF RVR FALLS  SUNNY     68  37  32 W24       29.75R
HALSTAD          N/A     72  36  26 NW16        N/A
FOSSTON        MOSUNNY   72  39  30 W9        29.77R
BAUDETTE       MOCLDY    70  42  36 W10G28    29.64S
WASKISH        MOSUNNY   64  45  48 SW12      29.70S
CROOKSTON      SUNNY     70  39  32 W23G30    29.77R
$$
  *****  WEATHER ACROSS CENTRAL AND WEST MINNESOTA  *****

CITY           SKY/WX    TMP DP  RH WIND       PRES   REMARKS
BEMIDJI        SUNNY     68  42  38 W10G22    29.75S
PARK RAPIDS    MOSUNNY   70  39  32 W14       29.78R
WADENA         MOSUNNY   66  43  42 SW7       29.80S
DETROIT LAKES  MOSUNNY   68  43  40 SW6       29.81S
MOORHEAD       MOSUNNY   75  30  19 W15       29.79R
FERGUS FALLS   MOSUNNY   70  37  30 SW7       29.81S
ELBOW LAKE     FAIR      72  43  35 W9        29.82S
MORRIS MN      SUNNY     73  43  33 W10       29.83R
STAPLES        MOSUNNY   66  37  34 SW7       29.81R
WHEATON        MOSUNNY   72  43  35 W6        29.85R
$$
  *****  WEATHER ELSEWHERE ACROSS MINNESOTA  *****

CITY           SKY/WX    TMP DP  RH WIND       PRES   REMARKS
DULUTH         CLEAR     67  50  54 SW14      29.75F
INTRNTL FALLS  MOCLDY    68  41  37 SW10      29.65F
ELY            PTCLDY    68  37  32 SW10      29.70S
CLOQUET        CLEAR     64  48  55 S9        29.76S
BRAINERD       SUNNY     70  37  29 W10       29.79S
HIBBING        CLEAR     71  38  29 W10G17    29.72F
ALEXANDRIA     MOSUNNY   70  41  34 W10       29.84S
SAINT CLOUD    PTSUNNY   71  49  45 SW7       29.82S
MINNEAPOLIS    PTSUNNY   67  54  63 SW7       29.84R
$$

  *****  WEATHER ACROSS SOUTH DAKOTA  *****

CITY           SKY/WX    TMP DP  RH WIND       PRES   REMARKS
SIOUX FALLS    PTSUNNY   75  40  28 NW9       29.90R
BROOKINGS      NOT AVBL
WATERTOWN      MOSUNNY   72  39  30 NW9       29.90R
HURON          MOSUNNY   80  33  18 NW14      29.89R
SISSETON         N/A     76  39  26 W14       29.83R
ABERDEEN       SUNNY     77  35  21 NW15      29.88R
MITCHELL       SUNNY     79  36  21 CALM      29.91R
PIERRE         SUNNY     77  33  20 NW9       29.92R
MOBRIDGE       SUNNY     74  40  29 NW16      29.91R
RAPID CITY     SUNNY     70  40  33 N10       30.03R
$$

  *****  SOME WEATHER IN NEARBY STATES *****

CITY           SKY/WX    TMP DP  RH WIND       PRES   REMARKS
GLASGOW MT     MOSUNNY   58  29  33 W13       29.98R
GREAT FALLS MT CLOUDY    55  34  45 SW15      30.03R
CHEYENNE WY    SUNNY     75  18  11 W22G33    30.17S
SCOTTSBLUFF NE SUNNY     83  32  16 W14       30.03R
OMAHA NE       PTSUNNY   74  58  57 SW3       29.90S
DES MOINES IA  CLOUDY    67  61  81 SW8       29.89S
DAVENPORT IA   CLOUDY    67  51  56 S16       29.92F
CHICAGO IL     MOCLDY    65  46  50 SW8       29.95F
EAU CLAIRE WI  CLOUDY    57  54  89 S5        29.87R FOG
LA CROSSE WI   CLOUDY    61  57  87 S6        29.87S
$$

  *****  SOME NATIONAL WEATHER *****

CITY           SKY/WX    TMP DP  RH WIND       PRES   REMARKS
LA GUARDIA NY  MOCLDY    59  46  62 E7        29.77S
RALEIGH NC     MOCLDY    62  48  60 W3        29.97R
ATLANTA GA     CLEAR     72  40  31 NW5       30.01S
NEW ORLEANS LA MOSUNNY   75  45  34 N6        30.04F
OKLAHOMA CITY  PTSUNNY   84  59  42 SW14      30.03R
ALBUQUERQUE NM SUNNY     77  31  18 SW6       30.25F
SALT LAKE CITY SUNNY     79  28  15 S15       30.09F
LOS ANGELES CA MOSUNNY   76  62  62 W9        29.93F
BOISE ID       SUNNY     66  47  50 VRB3      30.00F
SEATTLE WA     CLOUDY    56  47  71 N8        29.95F
$$

*** WEATHER ACROSS MANITOBA...SASKATCHEWAN AND ONTARIO ***
                ***ONTARIO***

CITY           SKY/WX    TMP DP  RH WIND       PRES   REMARKS
GERALDTON      CLOUDY    48  46  93 S13       29.67F FOG
THUNDER BAY    MOCLDY    59  48  67 SW5       29.67F
SIOUX LOOKOUT  MOCLDY    59  43  55 SW6       29.58
TORONTO        PTCLDY    57  41  54 W12       29.93S
BIG TROUT LK   CLEAR     50  45  81 SE8       29.41F
PICKLE LAKE    MOCLDY    59  43  55 S12       29.49F
DRYDEN         PTCLDY    61  43  51 SW14G20   29.58F
KENORA         MOCLDY    59  45  58 S8        29.59F
$$
                *** MANITOBA***

CITY           SKY/WX    TMP DP  RH WIND       PRES   REMARKS
BRANDON        MOSUNNY   61  32  33 W28G35    29.75R
DAUPHIN        SUNNY     61  32  33 W35G51    29.62S
ISLAND LAKE    LGT RAIN  50  48  93 SW6       29.40S
PILOT MOUND      N/A     61  34  36 W20G29      N/A
THE PAS        CLOUDY    46  37  71 W16G26    29.56R
THOMPSON       CLOUDY    43  41  93 W3        29.41
WINNIPEG       MOSUNNY   63  37  39 W29G40    29.66R
LYNN LAKE      CLOUDY    39  36  87 W10G17    29.38R
CHURCHILL      FOG       37  37 100 E10       29.41F VSB 1
GILLAM         CLOUDY    43  41  93 CALM      29.39S
$$
                ***SASKATCHEWAN***

CITY           SKY/WX    TMP DP  RH WIND       PRES   REMARKS
ESTEVAN        MOSUNNY   59  34  38 W20G31    29.87R
KINDERSLEY     MOSUNNY   52  28  40 W17G25    29.90R
LLOYDMINSTER   MOSUNNY   50  23  34 W25       29.82R
PRINCE ALBERT  PTSUNNY   50  32  50 W20G29    29.73R
REGINA         MOSUNNY   55  32  41 W22G32    29.86R



USA.gov is the U.S. government's official web portal to all federal, state and local government web resources and services.